EDT,Max TemperatureF,Mean TemperatureF,Min TemperatureF,Max Dew PointF,MeanDew PointF,Min DewpointF,Max Humidity, Mean Humidity, Min Humidity, Max Sea Level PressureIn, Mean Sea Level PressureIn, Min Sea Level PressureIn, Max VisibilityMiles, Mean VisibilityMiles, Min VisibilityMiles, Max Wind SpeedMPH, Mean Wind SpeedMPH, Max Gust SpeedMPH,PrecipitationIn, CloudCover, Events, WindDirDegrees
2012-3-1,32,26,20,31,26,17,100,92,84,30.01,29.81,29.70,10,2,0,21,14,30,0.54,8,Fog-Rain-Snow,46
2012-3-2,28,24,20,27,23,18,100,92,84,30.15,30.07,29.92,10,5,0,14,6,18,0.04,8,Fog-Rain-Snow,90
2012-3-3,41,35,28,39,33,24,100,82,64,29.90,29.57,29.35,10,2,0,17,9,26,0.53,5,Fog-Rain-Snow,161
2012-3-4,39,34,28,23,19,15,75,60,44,29.67,29.61,29.54,10,10,10,20,8,28,0.00,1,,264
2012-3-5,31,25,18,13,7,0,60,44,27,30.30,29.97,29.67,10,10,10,24,15,32,0.00,1,,280
2012-3-6,35,24,12,14,3,-1,67,46,24,30.58,30.50,30.33,10,10,10,16,9,21,0.00,0,,274
2012-3-7,56,42,28,35,26,18,72,52,32,30.55,30.38,30.23,10,10,10,28,17,36,0.00,0,,227
2012-3-8,64,55,45,46,43,38,86,65,44,30.23,30.04,29.70,10,10,10,36,23,47,T,1,Rain,222
2012-3-9,57,44,30,48,24,14,89,63,37,30.14,29.97,29.71,10,8,2,35,13,47,0.08,5,Rain-Snow,279
2012-3-10,35,30,25,18,16,11,68,56,43,30.51,30.39,30.15,10,10,10,24,10,32,0.00,3,,291
2012-3-11,54,41,27,28,20,14,68,47,26,30.49,30.36,30.27,10,10,10,24,13,31,0.00,0,,233
2012-3-12,68,52,35,33,27,23,70,44,17,30.29,30.22,30.12,10,10,10,17,9,22,0.00,0,,253
2012-3-13,69,58,47,52,46,33,100,72,43,30.10,29.99,29.88,10,8,2,20,10,25,0.28,5,Rain,230
2012-3-14,61,49,36,51,38,28,92,61,29,30.25,30.12,29.96,10,8,1,21,9,25,0.00,5,,8
2012-3-15,46,41,35,36,35,30,100,80,60,30.36,30.30,30.22,10,6,0,10,4,14,T,7,Fog-Rain,88
2012-3-16,49,41,32,44,38,30,100,91,82,30.33,30.18,30.08,10,6,1,16,6,20,0.07,8,Rain,229
2012-3-17,53,46,39,45,41,38,92,76,59,30.37,30.30,30.16,10,10,10,13,5,17,0.00,6,,38
2012-3-18,74,57,39,46,42,38,92,63,33,30.34,30.25,30.16,10,10,6,18,13,24,0.00,0,,249
2012-3-19,78,64,50,49,45,41,83,56,29,30.27,30.18,30.14,10,10,8,14,7,21,0.00,0,,303
2012-3-20,76,60,43,54,46,41,92,63,33,30.32,30.29,30.25,10,10,7,15,9,21,0.00,0,,255
2012-3-21,73,64,55,56,54,52,100,75,49,30.37,30.31,30.26,10,7,0,16,12,22,0.00,2,Fog,251
2012-3-22,78,67,56,55,52,47,100,67,33,30.24,30.14,30.04,10,9,6,18,11,26,0.00,2,,260
2012-3-23,73,65,56,52,37,24,69,43,17,30.14,30.06,30.00,10,10,10,18,8,23,0.00,2,,343
2012-3-24,58,54,49,31,23,14,36,28,20,30.15,30.08,30.04,10,10,10,13,5,21,0.00,5,,90
2012-3-25,45,42,39,40,35,25,92,69,45,30.03,29.84,29.71,10,8,2,8,3,10,0.03,7,Rain,50
2012-3-26,47,37,27,43,24,1,89,58,27,29.99,29.76,29.63,10,10,10,31,17,43,T,3,Rain,317
2012-3-27,45,34,22,0,-4,-12,39,25,10,30.19,30.13,30.00,10,10,10,25,13,38,0.00,0,,322
2012-3-28,50,43,35,42,26,-6,83,50,17,30.15,29.79,29.56,10,10,10,16,8,21,0.04,7,Rain,213
2012-3-29,49,43,36,43,33,26,80,68,55,29.93,29.70,29.53,10,10,10,23,13,30,0.01,8,Rain,318
2012-3-30,48,39,29,26,15,5,78,48,17,30.03,29.98,29.92,10,10,8,22,8,30,T,4,Snow,324
2012-3-31,41,37,32,34,29,13,89,61,33,30.02,29.94,29.86,10,8,1,12,6,16,0.04,6,Snow,66